{"data":{"norad_id":69905,"epoch":"2026-09-19T23:01:55.038720Z","epoch_age_seconds":64472,"freshness":"FRESH","line1":"1 69905U 26156AN  26262.95966480  .00001966  00000+0  20256-3 0  9993","line2":"2 69905  97.7482 162.1264 0001795 249.5982 110.5043 14.91383890 11126","mean_motion":14.9138389,"eccentricity":0.0001795,"inclination_deg":97.7482,"raan_deg":162.1264,"arg_perigee_deg":249.5982,"mean_anomaly_deg":110.5043,"bstar":0.00020256,"rev_number":1112,"period_min":96.554616799569,"perigee_km":592.36805994629,"apogee_km":594.87092052628,"semimajor_km":6971.7564902363,"source":"CELESTRAK","updated_at":"2026-09-20T09:00:25.172760Z"}}